[[{"header":{"parameterUnit":"m.s-1","parameterCategory":2,"la1":30.2991,"la2":30.254,"lo1":-89.0895,"lo2":-89.0444,"dy":0.0017,"dx":0.0017,"nx":28,"ny":28,"refTime":"2024-04-27T21:00:00:Z","depth":"0","parameterNumber":2,"parameterNumberName":"U-component_of_CURRENTS"},"data":[0,0,0,0,0,0,0,0,0,0,0,0,0,0,0,0,0,0,0,0,0,0,0,0,0,0,0,0,0,0,0,0,0,0,0,0,0,0,0,0,0,0,0,0,0,0,0,0,0,0,0,0,0,0,0,0,0,0,0.1865,0.1866,0,0.1881,0.1881,0.1881,0.187,0.187,0.1869,0.1869,0.1875,0.1875,0.1876,0,0,0,0,0,0,0,0,0,0,0,0,0,0.1835,0.1836,0.1865,0.1866,0.1866,0.1881,0.1881,0.1881,0.187,0.187,0.1869,0.1869,0.1875,0.1875,0.1876,0,0,0,0,0,0,0,0,0,0,0,0,0,0.1847,0.1836,0.1865,0.1864,0.1864,0.1881,0.1881,0.1881,0.187,0.187,0.1869,0.1869,0.1875,0.1875,0.1876,0.1888,0,0,0.1878,0.1878,0,0,0,0,0,0,0,0,0.1847,0.1848,0.1864,0.1864,0.1864,0.1875,0.1872,0.1884,0.187,0.1865,0.1869,0.1868,0.1876,0.1876,0.1877,0.1889,0.1889,0.1878,0.1878,0.1878,0.1879,0,0,0,0,0,0,0,0.1846,0.1847,0.1869,0.1864,0.1865,0.1866,0.1867,0.1874,0.1871,0.1866,0.1866,0.1871,0.1875,0.1877,0.1877,0.1889,0.1878,0.1878,0.1879,0.1879,0.1939,0.194,0,0,0,0,0,0,0.1848,0.1847,0.1869,0.187,0.1857,0.1867,0.1868,0.187,0.1871,0.1872,0.1871,0.187,0.1876,0.1876,0.1877,0.1915,0.1878,0.1879,0.1879,0.1938,0.1939,0.194,0,0,0,0,0,0,0.1848,0.185,0.1868,0.186,0.1863,0.1868,0.1871,0.1871,0.1875,0.1876,0.1875,0.1876,0.1875,0.1876,0.189,0.1914,0.1879,0.188,0.1936,0.1938,0.194,0.1976,0,0,0,0,0,0,0.1846,0.1849,0.1852,0.1861,0.1864,0.1883,0.1871,0.1871,0.188,0.1879,0.188,0.188,0.1875,0.189,0.1891,0.1915,0.188,0.1935,0.1937,0.1939,0.1973,0.1979,0.1984,0,0,0,0,0,0.1845,0.185,0.1852,0.1854,0.1866,0.1884,0.1886,0.1886,0.1881,0.1887,0.1888,0.188,0.1905,0.1891,0.1892,0.1917,0.1934,0.1936,0.1939,0.1971,0.1978,0.1984,0,0,0,0,0,0,0.1834,0.185,0.1852,0.1859,0.1874,0.1883,0.189,0.1891,0.1897,0.1895,0.1891,0.1891,0.1914,0.1912,0.1896,0.1942,0.192,0.1923,0.1944,0.1951,0.1956,0.1963,0.1881,0,0,0,0,0,0.1835,0.1844,0.1859,0.1867,0.1875,0.1884,0.1891,0.1894,0.1901,0.1903,0.1906,0.1913,0.1927,0.1934,0.1943,0.1966,0.1989,0.1985,0.199,0.1994,0.2002,0.2058,0.2069,0.1949,0.1949,0.1949,0,0,0.1831,0.1843,0.1846,0.1866,0.1876,0.1894,0.1886,0.1902,0.1918,0.1904,0.1924,0.193,0.1937,0.1963,0.1974,0.1963,0.2043,0.1997,0.2001,0.2007,0.2062,0.2073,0.2084,0.1951,0.1951,0.195,0,0,0.1835,0.1842,0.1854,0.1871,0.1894,0.1903,0.191,0.1925,0.1933,0.1953,0.1953,0.1974,0.1987,0.2004,0.2013,0.2053,0.2068,0.2057,0.209,0.2144,0.2154,0.2164,0.222,0.2234,0.2061,0.2061,0.2061,0,0.1829,0.1847,0.186,0.1882,0.1897,0.1909,0.1928,0.1942,0.196,0.1978,0.1964,0.2008,0.201,0.2055,0.2068,0.2066,0.21,0.2063,0.2151,0.2161,0.217,0.2225,0.2241,0.2063,0.2063,0.2062,0.2062,0,0.1844,0.1863,0.1874,0.1905,0.1924,0.1943,0.1968,0.1989,0.1998,0.2016,0.2058,0.2064,0.2094,0.21,0.2093,0.2162,0.2167,0.2151,0.2135,0.2184,0.224,0.2255,0.2066,0.2065,0.2064,0.2064,0,0,0.1809,0.1873,0.1874,0.1897,0.1938,0.1953,0.1992,0.2032,0.2064,0.2084,0.213,0.2153,0.2164,0.2175,0.2178,0.2218,0.2309,0.2213,0.2215,0.2269,0.2442,0.2474,0.2493,0.231,0.2313,0.2315,0.246,0,0.1813,0.186,0.189,0.1929,0.1952,0.1987,0.2024,0.2065,0.2097,0.2147,0.2174,0.2214,0.2191,0.2211,0.2251,0.2295,0.2349,0.2272,0.2386,0.239,0.2412,0.2512,0.2482,0.2612,0.2474,0.2477,0.2479,0,0.1805,0.1843,0.1883,0.195,0.1963,0.1986,0.2049,0.2088,0.2166,0.2197,0.225,0.2274,0.2343,0.2309,0.2422,0.2377,0.2418,0.2445,0.2451,0.2479,0.2451,0.2538,0.2644,0.262,0.2502,0.25,0.2498,0,0.1761,0.1831,0.1863,0.1883,0.1959,0.1983,0.2023,0.2097,0.2139,0.2235,0.2284,0.2358,0.2408,0.2467,0.2529,0.2487,0.2657,0.2604,0.2676,0.2678,0.2675,0.2673,0.2769,0.2697,0.2696,0.2696,0.2695,0,0.1743,0.1763,0.1843,0.1857,0.1897,0.1961,0.2013,0.2068,0.2158,0.2222,0.2305,0.237,0.2451,0.2549,0.2582,0.27,0.271,0.2716,0.2731,0.2688,0.2686,0.2679,0.264,0.2701,0.27,0.2699,0.2698,0,0.1678,0.1733,0.1768,0.1849,0.1872,0.1897,0.199,0.2035,0.2137,0.2226,0.2262,0.2406,0.2553,0.2645,0.2766,0.2784,0.282,0.2906,0.2857,0.2864,0.2882,0.2846,0.2785,0.2697,0.3011,0.3013,0.3014,0,0.1649,0.1663,0.174,0.1763,0.1794,0.1851,0.1892,0.1998,0.2054,0.2239,0.2279,0.2464,0.2578,0.2803,0.2908,0.3034,0.2905,0.3048,0.2956,0.2919,0.289,0.269,0.2604,0.297,0.2971,0.2972,0.2973,0,0.1592,0.1616,0.1651,0.1699,0.1736,0.179,0.1861,0.1893,0.2034,0.2135,0.2284,0.2395,0.2671,0.2819,0.3016,0.3066,0.2926,0.307,0.3048,0.2898,0.2671,0.2581,0.2835,0.2981,0.298,0.2979,0.2979,0.2978,0.1538,0.1544,0.1593,0.163,0.1673,0.1709,0.1721,0.1818,0.19,0.2029,0.22,0.236,0.2679,0.2971,0.302,0.3142,0.3003,0.3086,0.3059,0.2867,0.2739,0.3021,0.3167,0.3167,0.3168,0.3168,0.3168,0,0.1474,0.1495,0.1527,0.1559,0.1568,0.1626,0.1684,0.1689,0.1748,0.1943,0.2079,0.2404,0.2653,0.2896,0.3185,0.3147,0.2941,0.3082,0.2802,0.2725,0.3032,0.2991,0.3086,0.3086,0.3086,0.3086,0.3086,0.3086,0.1442,0.1442,0.1459,0.1444,0.1465,0.1444,0.1454,0.1488,0.1603,0.1775,0.1966,0.2151,0.2568,0.3015,0.3169,0.3123,0.2882,0.2786,0.2705,0.2972,0.2968,0.2965,0.2919,0.2998,0.2998,0.2283,0.2278,0.2275]},{"header":{"parameterUnit":"m.s-1","parameterCategory":2,"la1":30.2991,"la2":30.254,"lo1":-89.0895,"lo2":-89.0444,"dy":0.0017,"dx":0.0017,"nx":28,"ny":28,"refTime":"2024-04-27T21:00:00:Z","depth":"0","parameterNumber":3,"parameterNumberName":"V-component_of_CURRENTS"},"data":[0,0,0,0,0,0,0,0,0,0,0,0,0,0,0,0,0,0,0,0,0,0,0,0,0,0,0,0,0,0,0,0,0,0,0,0,0,0,0,0,0,0,0,0,0,0,0,0,0,0,0,0,0,0,0,0,0,0,-0.0209,-0.0209,0,-0.0296,-0.0297,-0.0298,-0.0342,-0.0342,-0.0342,-0.0342,-0.0429,-0.0431,-0.0434,0,0,0,0,0,0,0,0,0,0,0,0,0,-0.0123,-0.0124,-0.0208,-0.021,-0.0211,-0.0296,-0.0297,-0.0298,-0.0342,-0.0342,-0.0342,-0.0342,-0.0428,-0.0431,-0.0434,0,0,0,0,0,0,0,0,0,0,0,0,0,-0.0181,-0.0125,-0.0208,-0.0242,-0.0246,-0.0295,-0.0297,-0.0299,-0.0342,-0.0342,-0.0342,-0.0342,-0.0427,-0.0431,-0.0434,-0.0458,0,0,-0.0445,-0.0447,0,0,0,0,0,0,0,0,-0.0178,-0.0184,-0.0236,-0.024,-0.0244,-0.0307,-0.0299,-0.0351,-0.0343,-0.0307,-0.0342,-0.0342,-0.0388,-0.0394,-0.0413,-0.0462,-0.0466,-0.0445,-0.0448,-0.0449,-0.045,0,0,0,0,0,0,0,-0.0174,-0.0181,-0.0244,-0.0237,-0.0242,-0.0268,-0.0275,-0.0309,-0.0347,-0.031,-0.0313,-0.0321,-0.039,-0.0409,-0.0415,-0.0467,-0.0445,-0.0448,-0.0451,-0.0452,-0.053,-0.053,0,0,0,0,0,0,-0.0159,-0.0177,-0.0241,-0.0247,-0.0209,-0.0269,-0.0278,-0.0288,-0.0347,-0.0356,-0.0321,-0.0323,-0.0403,-0.0411,-0.0418,-0.0431,-0.0449,-0.0452,-0.0454,-0.053,-0.053,-0.053,0,0,0,0,0,0,-0.0157,-0.0164,-0.0238,-0.0213,-0.0224,-0.027,-0.0281,-0.029,-0.0306,-0.0356,-0.0364,-0.0328,-0.0403,-0.0413,-0.0443,-0.0435,-0.0454,-0.0457,-0.053,-0.053,-0.053,-0.0468,0,0,0,0,0,0,-0.0154,-0.0163,-0.0164,-0.0212,-0.0225,-0.0258,-0.0282,-0.0291,-0.0311,-0.0314,-0.0364,-0.0373,-0.0404,-0.0438,-0.0447,-0.044,-0.046,-0.053,-0.053,-0.053,-0.047,-0.0465,-0.0462,0,0,0,0,0,-0.0151,-0.0151,-0.0164,-0.0172,-0.0226,-0.0257,-0.0266,-0.03,-0.0311,-0.0315,-0.035,-0.0371,-0.0443,-0.0441,-0.0451,-0.0445,-0.053,-0.053,-0.053,-0.0471,-0.0466,-0.0462,0,0,0,0,0,0,-0.0112,-0.0157,-0.0172,-0.0185,-0.0214,-0.0264,-0.0272,-0.0295,-0.0327,-0.0328,-0.0374,-0.0385,-0.041,-0.0437,-0.0433,-0.0468,-0.0489,-0.0491,-0.0441,-0.0437,-0.0433,-0.0413,-0.0463,0,0,0,0,0,-0.0105,-0.0118,-0.0161,-0.017,-0.0182,-0.0226,-0.0243,-0.0264,-0.03,-0.0314,-0.0349,-0.0386,-0.0419,-0.0434,-0.0469,-0.0488,-0.0508,-0.0491,-0.0487,-0.0483,-0.0474,-0.0502,-0.0499,-0.0529,-0.0529,-0.0529,0,0,-0.0091,-0.0118,-0.0125,-0.0163,-0.0189,-0.02,-0.0236,-0.0255,-0.0263,-0.0318,-0.0336,-0.0376,-0.0423,-0.0445,-0.0458,-0.0464,-0.0484,-0.0483,-0.0479,-0.0473,-0.0502,-0.0499,-0.0496,-0.0529,-0.0529,-0.0529,0,0,-0.0068,-0.0094,-0.0096,-0.0117,-0.0151,-0.0178,-0.0179,-0.0224,-0.0241,-0.0267,-0.0308,-0.0338,-0.0389,-0.0418,-0.0439,-0.0435,-0.0466,-0.0447,-0.0406,-0.0433,-0.0431,-0.0429,-0.0442,-0.0442,-0.044,-0.044,-0.044,0,-0.0046,-0.0059,-0.0099,-0.0105,-0.0116,-0.0162,-0.016,-0.0186,-0.0233,-0.0243,-0.0262,-0.0335,-0.0374,-0.04,-0.0398,-0.0424,-0.0441,-0.0419,-0.0426,-0.0425,-0.0424,-0.0438,-0.0439,-0.0437,-0.0437,-0.0438,-0.0438,0,-0.0026,-0.0034,-0.0035,-0.0058,-0.0075,-0.0081,-0.0119,-0.0133,-0.0159,-0.0187,-0.022,-0.0277,-0.0316,-0.0335,-0.0367,-0.0379,-0.0394,-0.042,-0.0434,-0.0417,-0.0433,-0.0435,-0.0433,-0.0434,-0.0435,-0.0435,0,0,0.0035,-0.0012,-0.0008,-0.0012,-0.0049,-0.0059,-0.0067,-0.0089,-0.0087,-0.0137,-0.014,-0.0204,-0.0235,-0.0262,-0.0307,-0.033,-0.034,-0.0365,-0.0368,-0.0369,-0.0389,-0.0379,-0.0381,-0.0369,-0.0369,-0.0369,-0.0399,0,0.0071,0.0069,0.0035,0.0044,0.0042,0.0001,-0.0,-0.0026,-0.0054,-0.0068,-0.0127,-0.0151,-0.0208,-0.0221,-0.0256,-0.0322,-0.0343,-0.0328,-0.0413,-0.0415,-0.0402,-0.0382,-0.0337,-0.0359,-0.0401,-0.0401,-0.0401,0,0.0115,0.0105,0.0112,0.0093,0.0091,0.0089,0.0082,0.0075,0.0041,0.002,-0.0018,-0.0067,-0.0112,-0.0161,-0.0254,-0.0243,-0.0306,-0.0357,-0.036,-0.0374,-0.0409,-0.0386,-0.0361,-0.0495,-0.0404,-0.0404,-0.0404,0,0.0182,0.0167,0.0173,0.0165,0.0135,0.0138,0.0131,0.0106,0.0114,0.0081,0.0086,0.0008,-0.0013,-0.011,-0.0216,-0.0236,-0.0313,-0.0357,-0.0407,-0.0407,-0.0396,-0.0394,-0.0501,-0.0416,-0.0416,-0.0416,-0.0416,0,0.0236,0.0248,0.0204,0.0209,0.0232,0.0195,0.0222,0.0205,0.0198,0.0226,0.0141,0.015,-0.0001,-0.0067,-0.0182,-0.0286,-0.0287,-0.0389,-0.0412,-0.0372,-0.0368,-0.0507,-0.0618,-0.0417,-0.0417,-0.0417,-0.0416,0,0.0303,0.0276,0.0282,0.0257,0.026,0.0277,0.0287,0.0308,0.0296,0.0332,0.0331,0.0262,0.0185,0.0038,-0.0106,-0.0222,-0.0418,-0.0374,-0.0308,-0.0323,-0.0503,-0.0611,-0.0737,-0.0851,-0.0438,-0.0438,-0.0438,0,0.0333,0.0339,0.0323,0.0336,0.0326,0.0347,0.037,0.0361,0.0387,0.0412,0.0437,0.0383,0.0368,0.0159,-0.0049,-0.0234,-0.0399,-0.0336,-0.0374,-0.0496,-0.0635,-0.0692,-0.0784,-0.0334,-0.0333,-0.0333,-0.0332,0,0.0384,0.0372,0.0369,0.0398,0.0419,0.0447,0.0478,0.0518,0.0529,0.0577,0.0633,0.0636,0.0458,0.0304,0.0039,-0.0114,-0.0447,-0.0327,-0.0476,-0.0577,-0.0624,-0.0748,-0.033,-0.0325,-0.0326,-0.0327,-0.0327,-0.0327,0.042,0.0426,0.0422,0.0454,0.0486,0.0539,0.058,0.0634,0.0711,0.0803,0.0796,0.0862,0.0633,0.0289,0.0036,-0.0357,-0.0414,-0.0468,-0.0591,-0.0636,-0.0744,-0.0302,-0.0313,-0.0314,-0.0314,-0.0314,-0.0315,0,0.0448,0.0453,0.0483,0.0513,0.0561,0.057,0.0644,0.0702,0.0815,0.0945,0.1022,0.1025,0.0704,0.0341,-0.0156,-0.0506,-0.0695,-0.0727,-0.081,-0.0901,-0.0508,-0.05,-0.0525,-0.0525,-0.0525,-0.0525,-0.0525,-0.0524,0.0461,0.048,0.049,0.0567,0.0602,0.067,0.0718,0.0828,0.0937,0.1131,0.1253,0.1312,0.1146,0.0181,-0.049,-0.0731,-0.1065,-0.1116,-0.132,-0.1049,-0.1034,-0.102,-0.1036,-0.1173,-0.1174,-0.1635,-0.1639,-0.1643]}],[{"header":{"parameterUnit":"m.s-1","parameterCategory":2,"la1":30.2991,"la2":30.254,"lo1":-89.0895,"lo2":-89.0444,"dy":0.0017,"dx":0.0017,"nx":28,"ny":28,"refTime":"2024-04-27T21:00:00:Z","depth":"2","parameterNumber":2,"parameterNumberName":"U-component_of_CURRENTS"},"data":[0,0,0,0,0,0,0,0,0,0,0,0,0,0,0,0,0,0,0,0,0,0,0,0,0,0,0,0,0,0,0,0,0,0,0,0,0,0,0,0,0,0,0,0,0,0,0,0,0,0,0,0,0,0,0,0,0,0,0.1904,0.1904,0,0.1919,0.1919,0.1919,0.1908,0.1908,0.1908,0.1907,0.1914,0.1914,0.1914,0,0,0,0,0,0,0,0,0,0,0,0,0,0.1874,0.1874,0.1904,0.1904,0.1905,0.1919,0.1919,0.1919,0.1908,0.1908,0.1908,0.1907,0.1913,0.1914,0.1914,0,0,0,0,0,0,0,0,0,0,0,0,0,0.1886,0.1874,0.1904,0.1902,0.1903,0.1919,0.1919,0.1919,0.1908,0.1908,0.1908,0.1907,0.1913,0.1914,0.1915,0.1928,0,0,0.1917,0.1917,0,0,0,0,0,0,0,0,0.1885,0.1887,0.1902,0.1903,0.1903,0.1913,0.1911,0.1922,0.1909,0.1904,0.1907,0.1907,0.1914,0.1915,0.1916,0.1928,0.1928,0.1917,0.1917,0.1917,0.1918,0,0,0,0,0,0,0,0.1884,0.1886,0.1908,0.1903,0.1903,0.1904,0.1905,0.1913,0.191,0.1904,0.1904,0.1909,0.1914,0.1915,0.1916,0.1928,0.1917,0.1917,0.1918,0.1918,0.1979,0.198,0,0,0,0,0,0,0.1887,0.1885,0.1907,0.1908,0.1895,0.1905,0.1906,0.1909,0.191,0.191,0.191,0.1909,0.1914,0.1915,0.1916,0.1954,0.1917,0.1918,0.1918,0.1977,0.1979,0.198,0,0,0,0,0,0,0.1886,0.1888,0.1907,0.1899,0.1902,0.1907,0.1909,0.1909,0.1913,0.1914,0.1914,0.1914,0.1914,0.1915,0.1929,0.1953,0.1918,0.1919,0.1976,0.1978,0.198,0.2016,0,0,0,0,0,0,0.1885,0.1888,0.189,0.1899,0.1902,0.1922,0.191,0.191,0.1918,0.1917,0.1918,0.1918,0.1914,0.1929,0.193,0.1954,0.1919,0.1974,0.1977,0.1979,0.2013,0.2019,0.2023,0,0,0,0,0,0.1884,0.1889,0.189,0.1893,0.1905,0.1923,0.1924,0.1925,0.1919,0.1925,0.1927,0.1918,0.1944,0.193,0.1931,0.1956,0.1973,0.1976,0.1979,0.2011,0.2017,0.2023,0,0,0,0,0,0,0.1873,0.1888,0.189,0.1898,0.1913,0.1922,0.1928,0.1929,0.1935,0.1934,0.1929,0.193,0.1953,0.1951,0.1935,0.1981,0.196,0.1963,0.1984,0.199,0.1995,0.2002,0.192,0,0,0,0,0,0.1874,0.1883,0.1898,0.1905,0.1914,0.1922,0.1929,0.1932,0.194,0.1942,0.1944,0.1952,0.1967,0.1973,0.1983,0.2005,0.2028,0.2024,0.203,0.2034,0.2042,0.2097,0.2108,0.1989,0.1989,0.1989,0,0,0.1869,0.1882,0.1885,0.1905,0.1914,0.1933,0.1925,0.1941,0.1956,0.1943,0.1962,0.1969,0.1977,0.2003,0.2014,0.2003,0.2083,0.2037,0.2041,0.2046,0.2101,0.2113,0.2123,0.1991,0.1991,0.199,0,0,0.1874,0.1881,0.1893,0.191,0.1933,0.1941,0.1948,0.1964,0.1971,0.1992,0.1991,0.2013,0.2026,0.2044,0.2052,0.2093,0.2108,0.2098,0.213,0.2184,0.2194,0.2203,0.2259,0.2273,0.2101,0.2101,0.2101,0,0.1868,0.1886,0.1899,0.1921,0.1936,0.1947,0.1967,0.1981,0.1999,0.2017,0.2002,0.2047,0.2049,0.2095,0.2108,0.2106,0.214,0.2103,0.2191,0.2201,0.2209,0.2265,0.228,0.2103,0.2103,0.2103,0.2102,0,0.1883,0.1902,0.1913,0.1944,0.1963,0.1982,0.2007,0.2027,0.2036,0.2055,0.2097,0.2103,0.2133,0.2139,0.2133,0.2201,0.2207,0.219,0.2174,0.2224,0.2279,0.2294,0.2106,0.2105,0.2105,0.2104,0,0,0.1848,0.1912,0.1913,0.1936,0.1977,0.1992,0.2031,0.2071,0.2103,0.2123,0.2169,0.2192,0.2203,0.2214,0.2217,0.2258,0.2348,0.2253,0.2254,0.2308,0.248,0.2509,0.2528,0.235,0.2352,0.2354,0.2497,0,0.1853,0.1899,0.1929,0.1968,0.1991,0.2026,0.2063,0.2104,0.2136,0.2185,0.2213,0.2252,0.2231,0.2249,0.229,0.2334,0.2387,0.2311,0.2425,0.2428,0.2448,0.2547,0.2259,0.2365,0.2512,0.2514,0.2516,0,0.1845,0.1882,0.1922,0.1989,0.2002,0.2025,0.2088,0.2126,0.2204,0.2236,0.2288,0.2312,0.2381,0.2347,0.246,0.2415,0.2456,0.2483,0.2489,0.2514,0.2486,0.2338,0.2387,0.2541,0.2539,0.2537,0.2536,0,0.18,0.187,0.1902,0.1922,0.1998,0.2022,0.2062,0.2135,0.2177,0.2273,0.2322,0.2395,0.2445,0.2504,0.2565,0.2524,0.2693,0.2641,0.271,0.2712,0.2489,0.2468,0.2733,0.2733,0.2733,0.2732,0.2732,0,0.1782,0.1803,0.1882,0.1895,0.1936,0.1999,0.2051,0.2106,0.2196,0.2259,0.2342,0.2407,0.2488,0.2585,0.2618,0.2734,0.2745,0.275,0.2765,0.2497,0.2476,0.2632,0.2619,0.2738,0.2737,0.2736,0.2735,0,0.1718,0.1772,0.1807,0.1888,0.1911,0.1936,0.2028,0.2073,0.2174,0.2262,0.2298,0.2442,0.2587,0.2679,0.28,0.2817,0.2905,0.2937,0.263,0.2608,0.2871,0.2857,0.3034,0.3036,0.3038,0.304,0.3042,0,0.1688,0.1703,0.1779,0.1802,0.1833,0.1889,0.193,0.2035,0.2091,0.2275,0.2315,0.2498,0.2605,0.2828,0.2865,0.2971,0.3009,0.2806,0.2679,0.2912,0.2909,0.2891,0.2875,0.239,0.2386,0.2383,0.238,0,0.1631,0.1656,0.169,0.1738,0.1774,0.1828,0.1898,0.1931,0.207,0.2169,0.2316,0.2421,0.263,0.2631,0.2799,0.2805,0.2766,0.2751,0.3073,0.238,0.2323,0.2314,0.2315,0.2352,0.2354,0.2357,0.2358,0.2359,0.1578,0.1584,0.1632,0.1668,0.1711,0.1746,0.1758,0.1859,0.1938,0.2065,0.2211,0.2326,0.2409,0.2539,0.2505,0.2499,0.2694,0.2582,0.2583,0.259,0.2512,0.2464,0.2504,0.2508,0.2511,0.2514,0.2516,0,0.1523,0.1534,0.1566,0.1597,0.1616,0.1663,0.1721,0.1748,0.181,0.1961,0.2076,0.2014,0.2036,0.2141,0.2068,0.2125,0.1993,0.2064,0.1842,0.1876,0.1904,0.1781,0.1584,0.1582,0.1579,0.1576,0,0,0.1493,0.1496,0.1513,0.1502,0.1515,0.1517,0.1527,0.1586,0.1685,0.1763,0.1815,0.1976,0.2099,0.1821,0.179,0.1678,0.1751,0.1608,0.2357,0.2129,0.2153,0.2216,0.207,0,0,0,0,0]},{"header":{"parameterUnit":"m.s-1","parameterCategory":2,"la1":30.2991,"la2":30.254,"lo1":-89.0895,"lo2":-89.0444,"dy":0.0017,"dx":0.0017,"nx":28,"ny":28,"refTime":"2024-04-27T21:00:00:Z","depth":"2","parameterNumber":3,"parameterNumberName":"V-component_of_CURRENTS"},"data":[0,0,0,0,0,0,0,0,0,0,0,0,0,0,0,0,0,0,0,0,0,0,0,0,0,0,0,0,0,0,0,0,0,0,0,0,0,0,0,0,0,0,0,0,0,0,0,0,0,0,0,0,0,0,0,0,0,0,-0.023,-0.0231,0,-0.0317,-0.0318,-0.0319,-0.0364,-0.0364,-0.0364,-0.0364,-0.0451,-0.0454,-0.0456,0,0,0,0,0,0,0,0,0,0,0,0,0,-0.0144,-0.0145,-0.023,-0.0231,-0.0232,-0.0317,-0.0318,-0.032,-0.0364,-0.0364,-0.0364,-0.0364,-0.0451,-0.0453,-0.0456,0,0,0,0,0,0,0,0,0,0,0,0,0,-0.0202,-0.0146,-0.023,-0.0264,-0.0267,-0.0317,-0.0318,-0.032,-0.0364,-0.0364,-0.0364,-0.0364,-0.045,-0.0453,-0.0457,-0.048,0,0,-0.0468,-0.0469,0,0,0,0,0,0,0,0,-0.0199,-0.0206,-0.0258,-0.0261,-0.0266,-0.0329,-0.032,-0.0373,-0.0364,-0.0328,-0.0364,-0.0364,-0.041,-0.0417,-0.0435,-0.0484,-0.0488,-0.0468,-0.047,-0.0472,-0.0473,0,0,0,0,0,0,0,-0.0195,-0.0202,-0.0266,-0.0259,-0.0264,-0.0289,-0.0297,-0.0331,-0.0369,-0.0332,-0.0335,-0.0343,-0.0412,-0.0431,-0.0437,-0.049,-0.0468,-0.0471,-0.0473,-0.0475,-0.0553,-0.0552,0,0,0,0,0,0,-0.018,-0.0198,-0.0263,-0.0268,-0.023,-0.029,-0.0299,-0.0309,-0.0369,-0.0378,-0.0343,-0.0345,-0.0425,-0.0433,-0.044,-0.0453,-0.0472,-0.0475,-0.0477,-0.0553,-0.0553,-0.0552,0,0,0,0,0,0,-0.0178,-0.0185,-0.0259,-0.0234,-0.0245,-0.0291,-0.0303,-0.0311,-0.0327,-0.0377,-0.0386,-0.0349,-0.0425,-0.0435,-0.0466,-0.0457,-0.0476,-0.048,-0.0553,-0.0553,-0.0552,-0.049,0,0,0,0,0,0,-0.0175,-0.0184,-0.0185,-0.0233,-0.0246,-0.0279,-0.0303,-0.0313,-0.0332,-0.0335,-0.0386,-0.0395,-0.0426,-0.046,-0.0469,-0.0462,-0.0483,-0.0553,-0.0553,-0.0553,-0.0492,-0.0488,-0.0484,0,0,0,0,0,-0.0172,-0.0173,-0.0185,-0.0193,-0.0247,-0.0279,-0.0288,-0.0321,-0.0332,-0.0336,-0.0371,-0.0393,-0.0465,-0.0463,-0.0474,-0.0468,-0.0553,-0.0553,-0.0553,-0.0494,-0.0489,-0.0484,0,0,0,0,0,0,-0.0134,-0.0179,-0.0193,-0.0207,-0.0236,-0.0286,-0.0293,-0.0316,-0.0349,-0.035,-0.0396,-0.0407,-0.0432,-0.0459,-0.0455,-0.049,-0.0511,-0.0513,-0.0463,-0.0459,-0.0455,-0.0435,-0.0485,0,0,0,0,0,-0.0126,-0.014,-0.0183,-0.0192,-0.0204,-0.0247,-0.0264,-0.0286,-0.0321,-0.0335,-0.0371,-0.0407,-0.0441,-0.0456,-0.0492,-0.051,-0.0531,-0.0513,-0.0509,-0.0505,-0.0497,-0.0524,-0.0521,-0.0552,-0.0552,-0.0552,0,0,-0.0113,-0.0139,-0.0146,-0.0185,-0.021,-0.0222,-0.0257,-0.0277,-0.0284,-0.034,-0.0358,-0.0398,-0.0445,-0.0467,-0.048,-0.0486,-0.0506,-0.0505,-0.0501,-0.0495,-0.0524,-0.0521,-0.0518,-0.0552,-0.0552,-0.0552,0,0,-0.009,-0.0116,-0.0118,-0.0139,-0.0173,-0.02,-0.0201,-0.0246,-0.0263,-0.0289,-0.0329,-0.0359,-0.0411,-0.0439,-0.0461,-0.0456,-0.0488,-0.0469,-0.0428,-0.0454,-0.0452,-0.045,-0.0463,-0.0463,-0.0462,-0.0462,-0.0461,0,-0.0068,-0.0081,-0.0121,-0.0128,-0.0139,-0.0184,-0.0182,-0.0208,-0.0255,-0.0265,-0.0284,-0.0357,-0.0396,-0.0421,-0.042,-0.0445,-0.0463,-0.044,-0.0447,-0.0446,-0.0445,-0.0459,-0.046,-0.0459,-0.0459,-0.0459,-0.0459,0,-0.0048,-0.0057,-0.0058,-0.0081,-0.0098,-0.0104,-0.0141,-0.0155,-0.0181,-0.0209,-0.0241,-0.0298,-0.0337,-0.0356,-0.0388,-0.04,-0.0415,-0.0441,-0.0455,-0.0438,-0.0454,-0.0456,-0.0454,-0.0455,-0.0456,-0.0457,0,0,0.0012,-0.0035,-0.0031,-0.0036,-0.0072,-0.0082,-0.009,-0.0112,-0.0109,-0.0159,-0.0162,-0.0226,-0.0257,-0.0284,-0.0328,-0.0351,-0.036,-0.0386,-0.0389,-0.039,-0.0409,-0.04,-0.0402,-0.0389,-0.0389,-0.0389,-0.0419,0,0.0047,0.0044,0.0011,0.0019,0.0018,-0.0023,-0.0024,-0.005,-0.0077,-0.0091,-0.0149,-0.0173,-0.0229,-0.0243,-0.0277,-0.0342,-0.0363,-0.0349,-0.0433,-0.0435,-0.0423,-0.0403,-0.0432,-0.046,-0.0421,-0.0421,-0.0422,0,0.0091,0.008,0.0087,0.0068,0.0066,0.0065,0.0058,0.005,0.0017,-0.0003,-0.0041,-0.009,-0.0134,-0.0182,-0.0275,-0.0264,-0.0326,-0.0377,-0.0381,-0.0395,-0.043,-0.0475,-0.0465,-0.0425,-0.0424,-0.0424,-0.0424,0,0.0157,0.0141,0.0147,0.014,0.0109,0.0113,0.0106,0.0081,0.0089,0.0057,0.0063,-0.0014,-0.0036,-0.0131,-0.0237,-0.0257,-0.0333,-0.0377,-0.0427,-0.0427,-0.0479,-0.0483,-0.0435,-0.0435,-0.0435,-0.0435,-0.0435,0,0.0209,0.0221,0.0178,0.0183,0.0206,0.017,0.0197,0.018,0.0173,0.0201,0.0117,0.0127,-0.0023,-0.0089,-0.0203,-0.0307,-0.0308,-0.041,-0.0432,-0.0457,-0.0459,-0.0454,-0.0456,-0.0436,-0.0436,-0.0436,-0.0436,0,0.0276,0.0249,0.0256,0.0231,0.0234,0.0251,0.0261,0.0282,0.0271,0.0307,0.0306,0.0238,0.0161,0.0015,-0.0128,-0.0244,-0.0357,-0.0395,-0.0403,-0.0426,-0.0445,-0.0443,-0.046,-0.0459,-0.0459,-0.0459,-0.0459,0,0.0306,0.0312,0.0297,0.031,0.03,0.0322,0.0344,0.0335,0.0361,0.0386,0.0411,0.0357,0.0331,0.0124,-0.0109,-0.0302,-0.0312,-0.0435,-0.0482,-0.0426,-0.0447,-0.0445,-0.0444,-0.053,-0.0531,-0.0531,-0.0531,0,0.0357,0.0345,0.0342,0.0372,0.0393,0.0421,0.0452,0.0491,0.0503,0.0538,0.0594,0.0586,0.0385,0.0164,-0.0112,-0.025,-0.0412,-0.0448,-0.0394,-0.0508,-0.0492,-0.0512,-0.0509,-0.0535,-0.0535,-0.0535,-0.0534,-0.0534,0.0392,0.0399,0.0395,0.0428,0.046,0.0512,0.0553,0.056,0.0619,0.0628,0.0671,0.0615,0.0422,0.002,-0.0175,-0.0418,-0.0419,-0.0518,-0.0517,-0.0516,-0.0508,-0.0491,-0.0532,-0.0532,-0.0531,-0.0531,-0.0531,0,0.0404,0.0426,0.0456,0.0486,0.0513,0.0543,0.0617,0.0607,0.0645,0.0637,0.0638,0.0463,0.0234,0.0032,-0.0349,-0.0535,-0.057,-0.0569,-0.0587,-0.0583,-0.058,-0.0575,-0.0617,-0.0618,-0.0618,-0.0618,0,0,0.0412,0.0422,0.0432,0.0499,0.0549,0.0575,0.0621,0.0606,0.058,0.0544,0.05,0.0419,0.0242,-0.0031,-0.0273,-0.0457,-0.0481,-0.0492,-0.0416,-0.041,-0.0404,-0.0553,-0.0542,0,0,0,0,0]}],[{"header":{"parameterUnit":"m.s-1","parameterCategory":2,"la1":30.2991,"la2":30.254,"lo1":-89.0895,"lo2":-89.0444,"dy":0.0017,"dx":0.0017,"nx":28,"ny":28,"refTime":"2024-04-27T21:00:00:Z","depth":"4","parameterNumber":2,"parameterNumberName":"U-component_of_CURRENTS"},"data":[0,0,0,0,0,0,0,0,0,0,0,0,0,0,0,0,0,0,0,0,0,0,0,0,0,0,0,0,0,0,0,0,0,0,0,0,0,0,0,0,0,0,0,0,0,0,0,0,0,0,0,0,0,0,0,0,0,0,0.1448,0.1449,0,0.1483,0.1483,0.1483,0.1518,0.1518,0.1519,0.1519,0.1569,0.157,0.1571,0,0,0,0,0,0,0,0,0,0,0,0,0,0.1409,0.1409,0.1448,0.1449,0.1449,0.1483,0.1483,0.1484,0.1518,0.1518,0.1519,0.152,0.1569,0.157,0.1571,0,0,0,0,0,0,0,0,0,0,0,0,0,0.1432,0.1409,0.1448,0.1471,0.1474,0.1483,0.1483,0.1484,0.1517,0.1518,0.1519,0.152,0.1569,0.157,0.1571,0.1562,0,0,0.1575,0.1575,0,0,0,0,0,0,0,0,0.143,0.1433,0.1467,0.147,0.1472,0.1498,0.1488,0.1511,0.1517,0.1499,0.1519,0.152,0.1547,0.155,0.1553,0.1564,0.1566,0.1575,0.1576,0.1576,0.1576,0,0,0,0,0,0,0,0.1429,0.1432,0.1461,0.1468,0.1471,0.1479,0.1483,0.1492,0.1517,0.1501,0.1504,0.1509,0.1548,0.1551,0.1554,0.1567,0.1575,0.1576,0.1577,0.1577,0.1667,0.1668,0,0,0,0,0,0,0.1426,0.143,0.146,0.1462,0.1454,0.1479,0.1484,0.1488,0.1517,0.1523,0.1509,0.1511,0.1549,0.1553,0.1556,0.1627,0.1576,0.1577,0.1578,0.1665,0.1667,0.1669,0,0,0,0,0,0,0.1425,0.1428,0.1458,0.1448,0.1452,0.1479,0.1483,0.1488,0.1521,0.1523,0.1529,0.154,0.155,0.1554,0.1594,0.1627,0.1578,0.1579,0.1663,0.1666,0.1668,0.1718,0,0,0,0,0,0,0.1424,0.1427,0.1446,0.1447,0.1453,0.1484,0.1483,0.1488,0.1522,0.1526,0.1551,0.1555,0.1551,0.1592,0.1595,0.1627,0.158,0.1661,0.1664,0.1667,0.1714,0.1722,0.1729,0,0,0,0,0,0.1422,0.1438,0.1446,0.1451,0.1472,0.1485,0.1489,0.1509,0.1523,0.1541,0.1563,0.1556,0.1614,0.1594,0.1597,0.1631,0.1659,0.1663,0.1667,0.1711,0.1721,0.1728,0,0,0,0,0,0,0.1432,0.1443,0.1452,0.1472,0.1488,0.1491,0.1516,0.1526,0.1557,0.1572,0.1573,0.1578,0.1624,0.1623,0.1601,0.1667,0.1637,0.1642,0.167,0.1679,0.1686,0.1679,0.1581,0,0,0,0,0,0.1441,0.1459,0.1467,0.1488,0.1498,0.1513,0.1528,0.1541,0.1559,0.1575,0.1592,0.1615,0.1635,0.1655,0.1668,0.1704,0.1705,0.173,0.1737,0.1743,0.1741,0.1774,0.1784,0.1681,0.1681,0.1681,0,0,0.1452,0.1462,0.1473,0.1493,0.1508,0.1525,0.1525,0.1556,0.1579,0.1575,0.1625,0.1639,0.165,0.169,0.1711,0.1698,0.1776,0.1747,0.1752,0.1747,0.1779,0.1789,0.1797,0.1683,0.1683,0.1683,0,0,0.147,0.1492,0.1508,0.1523,0.1551,0.1558,0.1574,0.1595,0.1619,0.1657,0.1665,0.1702,0.1732,0.1748,0.1757,0.1813,0.1809,0.1827,0.1861,0.1894,0.1903,0.191,0.1934,0.1943,0.1834,0.1834,0.1834,0,0.1485,0.1502,0.1517,0.1535,0.1554,0.1576,0.1597,0.162,0.1655,0.1678,0.1683,0.1743,0.1755,0.1801,0.1824,0.1828,0.1844,0.1826,0.1903,0.191,0.1916,0.1939,0.1948,0.1837,0.1837,0.1837,0.1836,0,0.1501,0.1529,0.1543,0.1571,0.1594,0.162,0.1645,0.168,0.1711,0.1729,0.1788,0.1808,0.1842,0.186,0.1858,0.1919,0.1915,0.1903,0.1877,0.1929,0.1951,0.1959,0.1841,0.184,0.184,0.1839,0,0,0.1495,0.1545,0.1552,0.1573,0.1617,0.1631,0.1681,0.172,0.1755,0.1799,0.1843,0.1888,0.1906,0.1919,0.1933,0.1966,0.2031,0.1962,0.1963,0.198,0.2108,0.1992,0.199,0.2039,0.2041,0.2042,0.2107,0,0.1505,0.1543,0.1568,0.1611,0.1631,0.1671,0.171,0.1754,0.1794,0.1844,0.1882,0.193,0.1928,0.1958,0.1991,0.2021,0.2056,0.2014,0.206,0.2061,0.1946,0.1996,0.2047,0.2114,0.2116,0.2117,0.2118,0,0.1503,0.1532,0.1575,0.163,0.1644,0.1678,0.1744,0.1781,0.1851,0.1887,0.1941,0.1969,0.2034,0.2021,0.2098,0.2076,0.2098,0.2115,0.2118,0.1993,0.196,0.2049,0.2133,0.2132,0.2131,0.213,0.2129,0,0.1472,0.1532,0.1569,0.1588,0.1654,0.169,0.1731,0.1799,0.1837,0.1922,0.1962,0.2029,0.2078,0.2116,0.2155,0.2139,0.2229,0.2206,0.2122,0.2114,0.2176,0.2167,0.2258,0.2258,0.2258,0.2258,0.2257,0,0.1452,0.1484,0.1563,0.158,0.1629,0.1684,0.1743,0.1792,0.1869,0.1913,0.1988,0.2027,0.2108,0.2162,0.2181,0.2177,0.2253,0.2131,0.2123,0.2197,0.219,0.2182,0.2173,0.226,0.226,0.2259,0.2259,0,0.1401,0.1456,0.15,0.1584,0.1614,0.1649,0.1741,0.1775,0.1864,0.1925,0.1958,0.2052,0.2119,0.2183,0.2253,0.2201,0.2214,0.2196,0.2282,0.2277,0.207,0.2063,0.2096,0.2092,0.2089,0.2086,0.2084,0,0.1374,0.1395,0.149,0.152,0.1562,0.1628,0.1667,0.176,0.1792,0.1918,0.1932,0.204,0.2092,0.2092,0.217,0.2201,0.2181,0.2169,0.2101,0.2064,0.2055,0.2052,0.2048,0.208,0.2079,0.2078,0.2077,0,0.132,0.1369,0.1406,0.1468,0.1519,0.1562,0.1627,0.1638,0.1741,0.1841,0.1862,0.1896,0.1971,0.2013,0.2061,0.2076,0.216,0.2137,0.2142,0.2078,0.2045,0.2038,0.2038,0.2067,0.2068,0.2069,0.207,0,0.1284,0.1296,0.1357,0.1397,0.146,0.1476,0.1519,0.1552,0.1594,0.1722,0.1727,0.1844,0.1943,0.195,0.199,0.2001,0.1969,0.1897,0.1914,0.1927,0.1842,0.1773,0.1708,0,0,0,0,0,0.1237,0.1243,0.1279,0.1315,0.1374,0.1411,0.1481,0.1524,0.1621,0.1594,0.1652,0.1709,0.1759,0.1816,0.1797,0.1936,0.199,0.1906,0.1919,0.2009,0.2021,0.1937,0,0,0,0,0,0,0.1206,0.124,0.1249,0.1241,0.1254,0.1302,0.1345,0.1411,0.1393,0.15,0.1533,0.1618,0.1693,0.1761,0.177,0.1791,0.1767,0.1981,0.1977,0.2002,0.2013,0.2023,0.1941,0,0,0,0,0]},{"header":{"parameterUnit":"m.s-1","parameterCategory":2,"la1":30.2991,"la2":30.254,"lo1":-89.0895,"lo2":-89.0444,"dy":0.0017,"dx":0.0017,"nx":28,"ny":28,"refTime":"2024-04-27T21:00:00:Z","depth":"4","parameterNumber":3,"parameterNumberName":"V-component_of_CURRENTS"},"data":[0,0,0,0,0,0,0,0,0,0,0,0,0,0,0,0,0,0,0,0,0,0,0,0,0,0,0,0,0,0,0,0,0,0,0,0,0,0,0,0,0,0,0,0,0,0,0,0,0,0,0,0,0,0,0,0,0,0,-0.0252,-0.0253,0,-0.0316,-0.0317,-0.0318,-0.0368,-0.0368,-0.0368,-0.0369,-0.0472,-0.0474,-0.0476,0,0,0,0,0,0,0,0,0,0,0,0,0,-0.0186,-0.0187,-0.0252,-0.0253,-0.0254,-0.0316,-0.0317,-0.0318,-0.0368,-0.0368,-0.0369,-0.0369,-0.0471,-0.0473,-0.0476,0,0,0,0,0,0,0,0,0,0,0,0,0,-0.0229,-0.0187,-0.0252,-0.0286,-0.0289,-0.0316,-0.0317,-0.0318,-0.0367,-0.0368,-0.0369,-0.0369,-0.047,-0.0473,-0.0477,-0.0485,0,0,-0.0487,-0.0489,0,0,0,0,0,0,0,0,-0.0226,-0.0231,-0.028,-0.0283,-0.0287,-0.0334,-0.0331,-0.0376,-0.0367,-0.0338,-0.0369,-0.037,-0.0428,-0.0435,-0.0446,-0.049,-0.0494,-0.0488,-0.049,-0.0491,-0.0492,0,0,0,0,0,0,0,-0.0223,-0.0229,-0.0278,-0.0281,-0.0285,-0.0302,-0.0309,-0.034,-0.038,-0.0341,-0.0344,-0.0351,-0.0431,-0.0442,-0.0449,-0.0495,-0.0487,-0.0491,-0.0493,-0.0494,-0.0554,-0.0554,0,0,0,0,0,0,-0.0213,-0.0226,-0.0276,-0.028,-0.0258,-0.0302,-0.031,-0.0319,-0.0379,-0.0388,-0.035,-0.0353,-0.0436,-0.0445,-0.0453,-0.0471,-0.0491,-0.0494,-0.0496,-0.0555,-0.0554,-0.0554,0,0,0,0,0,0,-0.0212,-0.0217,-0.0273,-0.0254,-0.0262,-0.0303,-0.0312,-0.032,-0.0338,-0.0385,-0.0396,-0.0361,-0.0437,-0.0448,-0.0479,-0.0475,-0.0496,-0.0499,-0.0555,-0.0555,-0.0554,-0.0504,0,0,0,0,0,0,-0.021,-0.0216,-0.0221,-0.0253,-0.0263,-0.0291,-0.0312,-0.0321,-0.034,-0.0344,-0.0398,-0.0408,-0.0438,-0.0473,-0.0482,-0.048,-0.0502,-0.0556,-0.0555,-0.0554,-0.0506,-0.0502,-0.0498,0,0,0,0,0,-0.0207,-0.0213,-0.0221,-0.0227,-0.0268,-0.0291,-0.0297,-0.0329,-0.034,-0.0347,-0.0379,-0.0407,-0.0474,-0.0476,-0.0487,-0.0485,-0.0556,-0.0555,-0.0554,-0.0508,-0.0503,-0.0498,0,0,0,0,0,0,-0.0191,-0.0219,-0.0229,-0.0244,-0.0265,-0.0299,-0.031,-0.0327,-0.0357,-0.0362,-0.0405,-0.0417,-0.0442,-0.0468,-0.0469,-0.0498,-0.0518,-0.0519,-0.048,-0.0475,-0.047,-0.0459,-0.0505,0,0,0,0,0,-0.0186,-0.0197,-0.0225,-0.0237,-0.0246,-0.0275,-0.0289,-0.0308,-0.0337,-0.0351,-0.0385,-0.0418,-0.0444,-0.0463,-0.0492,-0.051,-0.0527,-0.0514,-0.051,-0.0506,-0.0503,-0.0512,-0.0508,-0.055,-0.055,-0.055,0,0,-0.0184,-0.02,-0.0208,-0.0234,-0.0252,-0.0263,-0.0286,-0.0305,-0.0313,-0.0358,-0.038,-0.0408,-0.0446,-0.0465,-0.0478,-0.0488,-0.0504,-0.0505,-0.0501,-0.05,-0.051,-0.0506,-0.0502,-0.0549,-0.0549,-0.055,0,0,-0.0182,-0.0197,-0.0205,-0.0217,-0.0241,-0.0256,-0.026,-0.0291,-0.0305,-0.0326,-0.0356,-0.0376,-0.0423,-0.0443,-0.0459,-0.0448,-0.0481,-0.0459,-0.043,-0.0439,-0.0435,-0.0432,-0.045,-0.0449,-0.0456,-0.0456,-0.0456,0,-0.0179,-0.019,-0.021,-0.0217,-0.0224,-0.025,-0.0254,-0.027,-0.0307,-0.031,-0.0329,-0.0376,-0.041,-0.0424,-0.042,-0.0439,-0.0452,-0.0447,-0.0433,-0.043,-0.0428,-0.0447,-0.0447,-0.0454,-0.0454,-0.0454,-0.0455,0,-0.0182,-0.0187,-0.0192,-0.0206,-0.0215,-0.0223,-0.0241,-0.0248,-0.0265,-0.028,-0.0298,-0.0337,-0.0362,-0.0374,-0.0398,-0.0397,-0.0414,-0.0426,-0.0444,-0.0421,-0.0442,-0.0443,-0.045,-0.0451,-0.0452,-0.0452,0,0,-0.0186,-0.0192,-0.0194,-0.0187,-0.0207,-0.0211,-0.0215,-0.0223,-0.0215,-0.0249,-0.0244,-0.0286,-0.0302,-0.0321,-0.0349,-0.0358,-0.0358,-0.0383,-0.0384,-0.0397,-0.0382,-0.0388,-0.0389,-0.0366,-0.0366,-0.0366,-0.0404,0,-0.0183,-0.018,-0.0188,-0.018,-0.0177,-0.0187,-0.0184,-0.0191,-0.0201,-0.0202,-0.0232,-0.0244,-0.0283,-0.0289,-0.0305,-0.0345,-0.0357,-0.0347,-0.0406,-0.0408,-0.0413,-0.0389,-0.0365,-0.0404,-0.0405,-0.0405,-0.0405,0,-0.0188,-0.018,-0.0169,-0.0151,-0.0151,-0.0148,-0.0132,-0.0133,-0.0137,-0.0143,-0.0157,-0.0184,-0.0207,-0.0238,-0.0294,-0.0286,-0.0329,-0.0361,-0.0363,-0.0386,-0.0414,-0.0433,-0.0406,-0.0406,-0.0406,-0.0406,-0.0406,0,-0.0175,-0.0167,-0.015,-0.0148,-0.0135,-0.0125,-0.0118,-0.0115,-0.0098,-0.0103,-0.0091,-0.013,-0.0142,-0.0198,-0.0275,-0.0281,-0.0335,-0.0353,-0.04,-0.0402,-0.0408,-0.0411,-0.0385,-0.0385,-0.0385,-0.0385,-0.0385,0,-0.0167,-0.0155,-0.014,-0.0129,-0.0098,-0.0101,-0.0068,-0.0064,-0.0047,-0.0015,-0.0059,-0.0047,-0.0131,-0.0176,-0.0252,-0.0328,-0.0321,-0.039,-0.0406,-0.0388,-0.0387,-0.0409,-0.0412,-0.0387,-0.0386,-0.0386,-0.0386,0,-0.0158,-0.0151,-0.0126,-0.0102,-0.009,-0.0068,-0.0028,-0.0001,0.0007,0.0048,0.0052,0.0021,-0.0039,-0.0132,-0.0223,-0.0291,-0.0368,-0.0399,-0.0374,-0.039,-0.0436,-0.0435,-0.0448,-0.0449,-0.0449,-0.0449,-0.0449,0,-0.0151,-0.0138,-0.0101,-0.0077,-0.0065,-0.003,0.0001,0.0024,0.0055,0.0091,0.0112,0.0075,0.0038,-0.009,-0.0202,-0.0346,-0.0371,-0.0417,-0.0425,-0.0425,-0.044,-0.0439,-0.0438,-0.045,-0.045,-0.045,-0.045,0,-0.0133,-0.0122,-0.0095,-0.0047,-0.001,0.0034,0.0075,0.0109,0.0145,0.0155,0.0179,0.0118,0.0049,-0.0071,-0.0187,-0.0292,-0.0389,-0.0421,-0.0421,-0.0429,-0.0427,-0.0442,-0.044,-0.0451,-0.0451,-0.0451,-0.0451,0,-0.0115,-0.0094,-0.0057,-0.0013,0.0034,0.0085,0.0106,0.0149,0.0185,0.0222,0.0228,0.0158,0.0114,-0.0044,-0.0149,-0.0255,-0.0286,-0.0325,-0.0331,-0.0331,-0.0293,-0.0274,-0.0257,0,0,0,0,0,-0.0096,-0.0068,-0.0025,0.0027,0.0071,0.0095,0.0153,0.0171,0.0209,0.0239,0.024,0.018,0.0046,-0.0021,-0.0125,-0.0179,-0.0324,-0.0307,-0.0376,-0.0458,-0.0456,-0.0433,0,0,0,0,0,0,-0.0079,-0.0041,-0.0019,0.005,0.0082,0.0136,0.0172,0.0198,0.0209,0.0234,0.0162,0.0141,-0.0001,0.0106,-0.0131,-0.0164,-0.0224,-0.0372,-0.0375,-0.0458,-0.0457,-0.0456,-0.0431,0,0,0,0,0]}]]